星链-30095 (STARLINK-30095 )

导读 | 星芒AI

STARLINK-30095 是 SpaceX Starlink 卫星互联网项目中的第 30095 颗卫星。该卫星属于星链计划的低轨卫星群,旨在为全球用户提供高速、低延迟的互联网服务。它由 SpaceX 设计并发射,采用先进推进系统和激光通信技术,以提高网络性能和减少空间碎片风险。作为星链计划的一部分,STARLINK-30095 有助于扩展覆盖范围,提升偏远地区的网络接入能力,推动全球数字化进程。

基本信息
目录编号:
56289
目录名称:
STARLINK-30095
国际标识:
2023-056D
轨道中心:
EARTH
卫星名称:
星链-30095
卫星全名:
星链-30095 (STARLINK-30095 )
卫星状态:
在轨 (已飞行974 天)
发射日期:
2023-04-19 UTC
国别 :
美国 (US)
星等 :
--
轨道信息
数据来源 国际轨道数据
星历时间: 2025-12-18T12:43:04+0800
12小时前
查看轨道信息
半长轴: 6937.228km
偏心率: 0.0001209
轨道倾角: 43.002°
近地点辐角 284.400°
升交点赤经 267.079°
平近点角 75.671°
近地点: 558.254km
远地点: 559.932km
周期: 95.838分钟
每日圈数: 15.025325
详细信息
固有亮度:
5
最大亮度:
0.3
卫星平台:
Starlink v2.0 mini
覆盖范围:
全球
运营商:
太空探索技术公司
运营商所在国:
美国
制造商(研发单位):
太空探索技术公司
制造商所在国:
美国
使用方式:
暂无
卫星简介
星链(Starlink)计划是由太空探索技术公司(SpaceX)提出的一个巨型低轨卫星互联网星座项目,计划在2019年至2024年间在太空搭建由约1.2万颗卫星组成的“星链”网络,其中1584颗将部署在地球上空550千米处的近地轨道,并从2020年开始工作。该卫星仍在工作。
2D轨道图
3D轨道图
轨道高度分析图
轨道倾角分析图
轨道综合分析图
查看轨道综合分析图